Other Public Products
Issued by NWS Grand Forks, ND

Home | Current Version | Previous Version | Graphics & Text | Print | Product List | Glossary On
Versions: 1 2 3 4 5 6 7 8 9 10 11 12 13 14 15 16 17 18 19 20 21 22 23 24 25 26 27 28 29 30 31 32 33 34 35 36 37 38 39 40 41 42 43 44 45 46 47 48 49 50
000
FPUS83 KFGF 272031
OPUFGF
PRAIRIE TO PINES WEATHER ROUNDUP
NATIONAL WEATHER SERVICE EASTERN NORTH DAKOTA/GRAND FORKS ND
200 PM CST MON FEB 27 2017

 **SATELLITE DATA USED TO AUGMENT SKY COVER AT AUTOMATED STATIONS**
 *****  WEATHER ACROSS EASTERN NORTH DAKOTA  *****

CITY           SKY/WX    TMP DP  RH WIND       PRES   REMARKS
GRAND FORKS    CLOUDY    27  15  61 W5        29.89  WCI  22
GRAND FORKS AF PTSUNNY   27  17  65 N7        29.88  WCI  20
GRAND CITY NWS NOT AVBL
BUXTON         NOT AVBL
DEVILS LAKE    FLURRIES  16  12  86 NE13      29.85S WCI   2
FARGO          PTSUNNY   32  22  66 E7        29.83
WAHPETON ARPT    N/A     32  27  80 E9        29.80F WCI  24
$$

 *****  WEATHER ACROSS CENTRAL AND WESTERN NORTH DAKOTA  *****

CITY           SKY/WX    TMP DP  RH WIND       PRES   REMARKS
JAMESTOWN      PTSUNNY   28  19  69 NE12      29.77  WCI  18
BISMARCK       CLOUDY    25  17  72 NE15      29.78S WCI  13
MINOT          LGT SNOW  14   8  77 N9        29.83F WCI   2
MINOT AFB      LGT SNOW  12   7  79 N10       29.83F WCI  -1
GARRISON         N/A     15  10  80 NE8       29.80F WCI   4
WILLISTON      CLOUDY    14   6  70 NE9       29.82  WCI   2
DICKINSON      LGT SNOW  17  13  84 NE15      29.69S FOG     WCI   2
HETTINGER      CLOUDY    27  19  72 NE9       29.68F WCI  18
$$

 *****  OTHER OBSERVATIONS NORTHEAST NORTH DAKOTA  *****

CITY           SKY/WX    TMP DP  RH WIND       PRES   REMARKS
WALHALLA       NOT AVBL
LANGDON        NOT AVBL
CAVALIER       LGT SNOW  18  14  86 N13       29.92S WCI   4
GRAFTON        LGT SNOW  19  16  86 N13       29.92F WCI   7
CANDO          NOT AVBL
FORT TOTTEN      N/A     20  15  81 N7        29.95S WCI  11
ROLLA          LGT SNOW  10   7  85 N12       29.85F WCI  -4
RUGBY            N/A     14  10  85 N3        29.84F FOG
 ***** THE ABOVE OBSERVATIONS ARE NON NWS ARE NOT QUALITY
        CONTROLLED AND MAY MIS-REPORT RAIN FOR SNOW...
$$

 *****  OTHER OBSERVATIONS SOUTHEAST NORTH DAKOTA *****

CITY           SKY/WX    TMP DP  RH WIND       PRES   REMARKS
COOPERSTOWN    MOCLDY    25  19  80 NE8       29.81F WCI  16
VALLEY CITY    FAIR      28  21  74 E12       29.80F WCI  18
OAKES          NOT AVBL
GWINNER        FAIR      34  30  86 E13       29.76F WCI  25
SHEYENNE NWR     N/A     32  22  67 E10       29.95S WCI  24
BUFFALO        NOT AVBL
WYNDMERE         N/A     32  28  86 E12         N/A  WCI  23
 ***** THE ABOVE OBSERVATIONS ARE NON NWS ARE NOT QUALITY
       CONTROLLED AND MAY MIS-REPORT RAIN FOR SNOW...
$$

  *****  WEATHER ACROSS NORTHERN MINNESOTA  *****

CITY           SKY/WX    TMP DP  RH WIND       PRES   REMARKS
FLAG ISLAND    PTSUNNY   23  14  68 S13       29.86S WCI  11
WARROAD        FAIR      27  16  63 SW8       29.88S WCI  18
ROSEAU         PTSUNNY   27  18  69 SW9       29.88F WCI  17
HALLOCK        CLOUDY    19  16  86 N6        29.91F HAZE    WCI  11
THF RVR FALLS    N/A     24  17  74 W3        29.89
HALSTAD          N/A     30  19  65 NE7         N/A  WCI  23
FOSSTON        FAIR      30  18  59 CALM      29.86F
BAUDETTE       CLOUDY    26  10  50 S7        29.87  WCI  18
WASKISH        CLOUDY    25  12  58 NW7       29.87F WCI  17
CROOKSTON      FAIR      27  19  74 N3        29.89S
$$
  *****  WEATHER ACROSS CENTRAL AND WEST MINNESOTA  *****

CITY           SKY/WX    TMP DP  RH WIND       PRES   REMARKS
BEMIDJI        FAIR      30  17  56 CALM      29.84F
PARK RAPIDS    PTSUNNY   32  17  54 SE7       29.83
WADENA         FAIR      32  25  74 SE7       29.82F
DETROIT LAKES  FAIR      32  23  69 SE9       29.82F WCI  24
MOORHEAD       FAIR      30  21  69 NE8       29.83F WCI  23
FERGUS FALLS   PTSUNNY   32  25  74 SE10      29.84F WCI  24
ELBOW LAKE     FAIR      33  28  81 SE9       29.79F
MORRIS MN      FAIR      37  27  65 SE15      29.78F
STAPLES        CLOUDY    34  25  69 SE6       29.84F
WHEATON        FAIR      36  27  69 E15       29.79F
$$
  *****  WEATHER ELSEWHERE ACROSS MINNESOTA  *****

CITY           SKY/WX    TMP DP  RH WIND       PRES   REMARKS
DULUTH         FAIR      30  22  72 S10       29.90  WCI  21
INTRNTL FALLS  FAIR      26   9  48 VRB3      29.89
ELY            PTSUNNY   28  18  64 S5        29.89F WCI  23
CLOQUET        FAIR      34  21  60 SE6       29.89F
BRAINERD       PTSUNNY   33  26  75 SE10      29.87  WCI  25
HIBBING        FAIR      29  18  63 VRB5      29.89  WCI  24
ALEXANDRIA     CLOUDY    37  24  59 SE13      29.83
SAINT CLOUD    CLOUDY    40  26  57 S13       29.88
MINNEAPOLIS    CLOUDY    44  18  35 S10G18    29.93
$$

  *****  WEATHER ACROSS SOUTH DAKOTA  *****

CITY           SKY/WX    TMP DP  RH WIND       PRES   REMARKS
SIOUX FALLS    PTSUNNY   43  24  47 S18G25    29.80
BROOKINGS      FAIR      44  19  36 S22G31    29.75
WATERTOWN      FAIR      43  20  39 S18G25    29.72
HURON          FAIR      45  19  35 S13G23    29.73
SISSETON         N/A     36  27  69 S10       29.76
ABERDEEN       FAIR      40  19  43 S12       29.73
MITCHELL       FAIR      45  25  45 S15G24    29.75
PIERRE         FAIR      47  15  27 VRB3      29.64
MOBRIDGE       FAIR      39  20  46 NW3       29.66
RAPID CITY     CLOUDY    43  24  47 NW8       29.57
$$

  *****  SOME WEATHER IN NEARBY STATES *****

CITY           SKY/WX    TMP DP  RH WIND       PRES   REMARKS
GLASGOW MT     FAIR      19  11  70 E10       29.75  WCI   7
GREAT FALLS MT FAIR      19  10  68 SE6       29.55  WCI  11
CHEYENNE WY    FAIR      38  15  39 S10       29.55
SCOTTSBLUFF NE PTSUNNY   36  18  48 E6        29.59
OMAHA NE       PTSUNNY   53  27  36 SE17      29.86
DES MOINES IA  CLOUDY    55  25  31 S16       29.95
DAVENPORT IA   FAIR      52  34  50 S13G21    30.04
CHICAGO IL     FAIR      51  33  50 S15       30.09F
EAU CLAIRE WI  FAIR      39  20  46 S10       29.97
LA CROSSE WI   FAIR      45  25  45 SE5       30.00
$$

  *****  SOME NATIONAL WEATHER *****

CITY           SKY/WX    TMP DP  RH WIND       PRES   REMARKS
LA GUARDIA NY  CLOUDY    52  30  43 S15       30.35F
RALEIGH NC     PTSUNNY   65  20  17 SW9       30.38F
ATLANTA GA     LGT RAIN  50  41  71 SE13      30.29
NEW ORLEANS LA PTSUNNY   77  67  71 S13G24    30.08F
OKLAHOMA CITY  FAIR      73  53  49 S15G26    29.83
ALBUQUERQUE NM PTSUNNY   53  21  28 S9G21     29.91
SALT LAKE CITY PTSUNNY   34  29  82 CALM      29.70S
LOS ANGELES CA PTSUNNY   56  47  71 S3        29.89
BOISE ID       CLOUDY    35  20  54 NW6       29.77
SEATTLE WA     CLOUDY    39  36  89 S13       29.69F
$$

*** WEATHER ACROSS MANITOBA...SASKATCHEWAN AND ONTARIO ***
                ***ONTARIO***

CITY           SKY/WX    TMP DP  RH WIND       PRES   REMARKS
GERALDTON      PTSUNNY   25   5  42 SW14G25   29.93F WCI  13
THUNDER BAY    PTSUNNY   28  14  54 E3        29.97F
SIOUX LOOKOUT  CLOUDY    25   9  50 SW9       29.83F WCI  15
TORONTO        MOSUNNY   46  23  39 W13G25    30.18S
BIG TROUT LK   CLOUDY     5  -4  66 NW9       29.84S HAZE    WCI  -9
PICKLE LAKE    FLURRIES  23   5  46 SW14G22   29.79F WCI  11
DRYDEN         MOSUNNY   25   7  46 SW17G26   29.83F WCI  11
KENORA         PTSUNNY   21   9  58 SW13      29.83S WCI   9
$$
                *** MANITOBA***

CITY           SKY/WX    TMP DP  RH WIND       PRES   REMARKS
BRANDON        PTSUNNY   10   0  61 W9        29.89F WCI  -2
DAUPHIN        SUNNY     12   0  57 W14G20    29.90F WCI  -3
ISLAND LAKE    MOSUNNY    3  -9  55 W10       29.87S WCI -12
PILOT MOUND      N/A     12   5  73 N5          N/A  WCI   4
THE PAS        FLURRIES   7  -8  51 W6        29.86F WCI  -3
THOMPSON       MOSUNNY   -6 -18  54 W8        29.86S WCI -21
WINNIPEG       CLOUDY    14   7  73 N5        29.94R WCI   6
LYNN LAKE      SUNNY     -9 -20  59 W6        29.81S WCI -23
CHURCHILL      CRYSTALS -22 -29  69 W13G18    29.86R VSB 3/4 WCI -46
GILLAM         PTSUNNY  -15 -26  58 W10       29.86R WCI -35
$$
                ***SASKATCHEWAN***

CITY           SKY/WX    TMP DP  RH WIND       PRES   REMARKS
ESTEVAN        CLOUDY     9   0  66 NE3       29.84F
KINDERSLEY     MOSUNNY   16   3  57 SW9       29.71F WCI   4
LLOYDMINSTER   PTSUNNY   18   7  62 W12       29.66F WCI   5
PRINCE ALBERT  PTSUNNY   12   0  57 SW15      29.76F WCI  -4
REGINA         PTSUNNY   10   0  61 S6        29.82F WCI   1
YORKTON        SUNNY      9  -2  61 SW8       29.84F WC



USA.gov is the U.S. government's official web portal to all federal, state and local government web resources and services.